User: anonymous   Login
Location: Newark
(35.8833°N, 14.5000°E)
Time: 08:45:44
(UTC+00:00)
Language:

Vanguard 2 - Orbit

View from above orbital plane
View from above orbital plane
View from above satellite
View from above satellite

Ground track
Ground track

The orbit data is extracted from the following two-line orbital elements,

1    11U 59001A   19318.79374734  .00000160  00000-0  86714-4 0  9990
2    11  32.8635 145.0755 1466799 114.0614 262.0184 11.85626445591120
Epoch (UTC): 14 November 2019 19:02:59
Eccentricity: 0.1466799
inclination: 32.8635°
perigee height: 554 km
apogee height: 2937 km
right ascension of ascending node: 145.0755°
argument of perigee: 114.0614°
revolutions per day: 11.85626445
mean anomaly at epoch: 262.0184°
orbit number at epoch: 59112

The dashed part of the orbit path shows where the satellite is in the earth's shadow,  

DLR